Back to catalog

STARLINK-36861

AliveCommunicationsVLEO
NORAD 67934·PAYLOAD·🇺🇸 United States

Launched Feb 24, 2026 from Vandenberg Space Force Base

Loading…

Next Passes (next 24 hours)

TLE

FreshSource: CelesTrak SupGP

Epoch: Sep 14, 2026, 15:45 UTC

1 67934C 26037C   26257.65673611  .00008491  00000+0  30767-3 0  2578
2 67934  43.0036 203.8659 0001485 265.0057 216.1377 15.27560448    13

Track STARLINK-36861 in real time with AllMySat

Download on the App Store